sat.trackr.live / text

‹ back to catalog

STARLINK-2647

NORAD 48658 · 2021-044W

PAYLOAD ACTIVE UNKNOWN

§ Identity

Operator
Country
US
Launch date
2021-05-26
Launch site
AFETR
Launch vehicle
Mass (kg)
RCS (m²)

Purposes: comms

External: N2YO · Heavens-Above · Gunter

§ Orbital elements

Epoch: 2026-09-19T17:57:23.010336Z

Period
94.01 min
Inclination
53.1604°
Eccentricity
0.0001592
Mean motion
15.31699383 rev/d
Perigee alt
469.7 km
Apogee alt
471.8 km
Semi-major
6,848.9 km
B*
1.4079e-5
RAAN
291.3633°
Arg perigee
60.4680°
Mean anomaly
299.6480°
Rev number
29,355

§ Raw data

STARLINK-26471 48658U 21044W   26262.74818299  .00000072  00000+0  14079-4 0  99912 48658  53.1604 291.3633 0001592  60.4680 299.6480 15.31699383293550

JSON: /api/v1/satellites/48658 · /tle

For live sub-satellite position, see the globe view (requires WebGL).

§ Visibility from observer

Set your observer location to see the next 7 days of passes ≥ 10°. The values pass through the URL so the page stays shareable.

No JS? Fill the form by hand. The geolocation button needs JavaScript.